narod.hr alexa rank chart, narod.hr alexa rank daily changes

narod.hr alexa rank chart, narod.hr alexa rank daily changes

narod.hr
Actual rank:
19 072

RANK HISTORY

Date Rank Diff
2017/12/14 19 072 -161
2017/12/13 19 233 +42
2017/12/12 19 191 +94
2017/12/11 19 097 +16
2017/12/10 19 081 -43
2017/12/09 19 124 -62
2017/12/08 19 186 -94
2017/12/07 19 280 -144
2017/12/06 19 424 -286
2017/12/05 19 710 -94
2017/12/04 19 804 +40
2017/12/03 19 764 -273
2017/12/02 20 037 +183
2017/12/01 19 854 -578
2017/11/30 20 432 +4
2017/11/29 20 428 +382
2017/11/28 20 046 -40
2017/11/27 20 086 +103
2017/11/26 19 983 +61
2017/11/25 19 922 +76
2017/11/24 19 846 -41
2017/11/23 19 887 -144
2017/11/22 20 031 -52
2017/11/21 20 083 +2
2017/11/20 20 081 +28
2017/11/19 20 053 +9
2017/11/18 20 044 +35
2017/11/17 20 009 -104
2017/11/16 20 113 -228
2017/11/15 20 341 +38
2017/11/14 20 303 +44
2017/11/13 20 259 -111
2017/11/12 20 370 -30
2017/11/11 20 400 +20
2017/11/10 20 380 +49
2017/11/09 20 331 +133
2017/11/08 20 198 +142
2017/11/07 20 056 +45
2017/11/06 20 011 +101
2017/11/05 19 910 +49
2017/11/04 19 861 -106
2017/11/03 19 967 -87
2017/11/02 20 054 -102
2017/11/01 20 156 +67
2017/10/31 20 089 +87
2017/10/30 20 002 +101
2017/10/29 19 901 -13
2017/10/28 19 914 +45
2017/10/27 19 869 +64
2017/10/26 19 805 +11
2017/10/25 19 794 -61
2017/10/24 19 855 +50
2017/10/23 19 805 +225
2017/10/22 19 580 +155
2017/10/21 19 425 +171
2017/10/20 19 254 +48
2017/10/19 19 206 +24
2017/10/18 19 182 -29
2017/10/17 19 211 +183
2017/10/16 19 028

WIDGET FOR YOUR SITE

DOMAINS WITH THE NEAREST RANK

Domain Rank
burton.com 19 067
getandroid.ir 19 068
collarspace.com 19 069
shaheenair.com 19 070
anime47.com 19 071
narod.hr 19 072
niniweblog.com 19 073
moncler.com 19 074
njust.edu.cn 19 075
infor.com 19 076
magazinelib.com 19 077

DOMAINS WITH THE NEAREST RANK BY TLD .hr

Domain Rank
tportal.hr 9 602
skole.hr 9 912
slobodnadalmacija.hr 12 518
rtl.hr 13 115
forum.hr 14 182
narod.hr 19 072
dnevno.hr 22 368
unizg.hr 22 801
telegram.hr 24 691
100posto.hr 25 707
hrt.hr 25 859